Location: Borovka
(49.7741°N, 14.5280°E)
Time: 21:17:57
(UTC+00:00)

BUGSAT 1 - Visible Passes

Search period start: 16 March 2026 00:00
Search period end: 26 March 2026 00:00
Orbit: 502 x 543 km, 98.0° (Epoch: 16 March)

Date Brightness Start Highest point End Pass type
(mag) Time Alt. Az. Time Alt. Az. Time Alt. Az.
21 Mar ? 20:56:24 10° N 20:56:24 10° N 20:56:25 10° N visible
24 Mar ? 21:52:01 10° NNW 21:52:01 10° NNW 21:52:04 10° NNW visible
25 Mar ? 21:38:48 12° NNW 21:38:48 12° NNW 21:39:05 10° NNW visible
